Vertical_Velocity
-0 -4 -1 -2 -1 0 -0 0 -0 -1 -1 -1 -1 -0 -1 1 1 2 3 -3 -3 1 -1 2 2 -0 2 3 2 -1 -1 -1 -1 -1 -1 -1 0 -1 -1 -1 -1 0 -0 -1
-2 -1 -3 0 0 0 -0 0 -1 -1 -0 -1 0 -1 -0 -0 -3 -4 -2 3 -2 -2 0 1 -0 -1 1 7 4 -1 -1 -1 -0 -0 -0 -0 -0 -2 -2 -2 -1 0 -0 -1
-0 -1 1 0 1 1 -0 -1 -1 -2 0 -1 -1 -2 1 0 0 3 2 1 3 -2 -6 -0 -3 -1 -0 -0 0 1 2 0 1 1 -0 -0 -1 -1 -2 -1 0 -1 -1 -1
1 -3 1 0 -0 -3 1 -2 0 1 -2 -2 0 -4 -1 -0 -0 0 0 -1 -2 3 3 1 -2 -3 -4 0 1 2 2 1 1 -0 -0 -1 -1 -1 1 1 1 0 -1 -1
-1 -1 -0 0 -3 -1 -5 -0 -2 -0 -1 -4 -4 -5 -7 -0 0 -2 -2 -4 -0 0 -0 -6 -5 -0 -1 -2 0 2 1 -0 -1 -1 -1 -1 0 0 0 -0 -1 -1 -2 -0
-2 -1 2 1 -1 -0 -1 -0 -1 -1 -2 -2 -3 -4 -7 -2 -8 -0 -2 -3 -4 5 0 -4 5 2 -2 1 0 1 0 -0 -1 -0 -0 0 0 1 -0 -1 -1 0 0 -1
-3 1 -0 -1 0 -1 1 -4 -2 -5 -4 -4 -0 -0 -12 -2 -2 -3 -4 -7 -4 -1 -3 1 -4 -5 -2 -2 -1 1 1 0 -1 -0 -1 -0 -0 -1 -1 0 1 0 0 0
-2 -9 -1 0 0 1 0 -4 -6 -5 -2 -2 -1 -4 -20 -3 -1 1 -0 -1 4 2 -2 -4 -1 0 0 0 1 1 -0 -3 -2 -1 -0 -0 0 0 -0 -0 -0 -1 -0 0
-2 -0 -0 -0 -0 -3 -0 -1 -3 -4 0 -2 -5 -5 -7 -0 -2 -1 -2 1 -4 -3 -2 -3 -0 -1 0 -0 -1 -0 -1 -0 0 0 0 0 0 1 0 -1 -1 -1 -1 -1
-4 -3 -1 -0 -2 -1 -4 -4 -1 -3 -3 -0 -3 -1 -8 -1 -3 -1 -0 -4 -1 2 7 3 -1 0 -0 1 1 1 1 1 2 1 1 1 1 -0 -0 0 -1 -1 -1 -1
-2 -7 -4 1 -1 -4 1 1 -2 -5 -1 -3 -1 -10 -6 -3 -1 -1 -2 -3 -3 -2 -1 0 2 3 4 3 1 1 1 1 1 1 1 -0 -0 1 0 -0 -1 -1 -1 -1
-3 -3 -1 -6 -0 -0 -2 -1 -3 -5 -2 -0 -3 -15 -1 -1 -1 -0 -3 -2 -1 -1 -1 -1 1 1 -1 2 3 3 2 1 1 -0 -0 1 0 -0 -0 -1 -1 -1 -1 -1
-4 -2 -3 -11 -8 -1 1 -0 -1 -1 -2 -3 -5 -15 -0 -0 -1 -2 -2 -1 -0 1 1 2 2 2 3 2 1 -0 0 1 0 1 1 -0 -0 -0 -1 -1 -1 -1 -2 -1
-1 -0 -5 -10 -9 -4 1 1 0 -4 -1 -2 -6 -5 -6 -3 -1 -1 -1 -2 -1 -1 -1 1 3 3 3 2 1 0 -0 1 1 0 1 1 1 1 0 -1 -1 -2 -3 -3
-5 -1 0 -1 -1 1 -1 -1 0 -0 -5 -5 -11 -2 -8 -1 -1 -2 -1 -1 -1 -1 -0 -2 -4 -4 -3 -1 -1 -1 0 1 0 0 -0 -2 -2 -2 -2 -2 -2 -2 -1 -1
-0 -2 0 -2 -0 1 0 -0 0 -0 0 1 0 -11 -2 -3 1 0 -1 -2 -2 -2 -2 -2 -1 -0 -2 -1 2 2 -0 -1 -1 -2 -1 -0 1 2 2 1 -1 -1 -1 -1
-1 -1 -1 -3 0 -0 -3 -7 -2 -1 0 -6 -3 -21 -0 -0 -0 -2 -2 0 -1 -0 -0 -4 -5 -4 -4 -6 -4 -4 -1 -1 -2 -2 -2 -2 -1 -1 -1 0 -1 -1 -1 -1
-2 -0 -0 -1 -2 -2 -17 -0 -1 -3 -2 0 0 -2 -1 -1 -3 0 1 -2 -4 -3 -2 2 3 1 1 1 2 3 -1 2 2 1 2 2 2 2 2 1 -0 0 0 0
-1 -2 -0 -2 -1 -11 -3 -1 -4 -5 -9 -2 -2 -2 -1 -1 1 -12 -2 3 -0 -1 2 2 6 5 2 1 1 -0 -1 0 0 -1 -0 -0 -0 0 -0 -1 -0 -0 1 1
-1 -2 -5 1 -1 -3 -5 -1 -0 -0 -10 -0 -1 -1 -0 -0 -2 -5 2 1 0 -0 0 1 2 1 4 -1 -1 -1 -1 -0 -1 -2 0 1 1 -1 -1 -0 0 1 0 -0
1 1 -2 0 -1 -9 -5 -1 -0 -2 -21 -0 -0 0 -1 -2 -8 -3 -4 -3 -1 0 0 1 -1 -2 1 3 3 1 2 -5 4 1 0 -1 -1 -1 -0 0 1 1 1 0
-6 -6 -1 1 0 -12 -2 0 -6 -12 -0 -0 -1 -1 -2 -1 -1 -0 0 0 -0 -1 -1 -1 -2 -3 -1 -1 -3 -3 -6 7 1 -0 -0 -1 -0 1 1 2 1 0 1 1
-4 -8 -9 -11 -16 -2 -5 -0 0 0 -1 -1 -1 1 0 0 -2 -2 -2 -2 -1 -1 -1 0 1 1 1 2 2 -1 3 -2 -1 -0 1 2 2 2 2 2 2 1 -1 -0
-1 -0 -0 -1 -5 -5 -0 -4 -3 3 -3 3 0 -1 -1 -3 2 -1 -4 -3 -1 -2 -2 -1 0 1 3 4 3 5 3 3 4 3 2 3 3 2 1 2 0 -2 -1 -1
-4 -1 -2 -4 -3 -3 -4 -4 1 4 1 -3 -2 -1 -1 5 -5 0 -0 -1 -2 0 -1 -1 -2 1 2 2 3 5 5 2 1 4 3 2 2 2 1 -2 -0 -3 -1 -2
-3 -6 -2 -13 -9 2 -9 -0 1 -0 -2 1 2 -4 0 1 -4 7 -3 1 -1 -2 2 -1 -0 2 3 3 4 4 2 1 2 2 0 3 -1 -2 -1 -6 -1 -0 3 2
Height
1516 1519 1520 1517 1518 1520 1518 1517 1515 1510 1508 1508 1512 1509 1510 1511 1512 1514 1512 1514 1521 1526 1531 1536 1539 1543 1546 1547 1549 1552 1555 1557 1559 1560 1561 1562 1562 1563 1563 1562 1562 1562 1561 1559
1520 1521 1517 1516 1517 1519 1519 1520 1514 1510 1508 1509 1513 1511 1510 1510 1510 1511 1512 1513 1514 1523 1528 1532 1536 1539 1543 1545 1547 1549 1552 1554 1556 1558 1559 1560 1560 1560 1560 1560 1560 1560 1559 1558
1519 1517 1514 1515 1518 1518 1519 1519 1515 1512 1509 1511 1511 1513 1511 1510 1511 1510 1510 1513 1516 1517 1523 1526 1531 1535 1540 1542 1544 1547 1549 1551 1553 1554 1556 1557 1557 1558 1558 1558 1558 1557 1557 1555
1520 1516 1514 1513 1514 1518 1517 1512 1513 1511 1514 1517 1517 1515 1512 1510 1510 1509 1509 1511 1513 1514 1516 1522 1527 1531 1535 1539 1542 1544 1545 1548 1549 1551 1552 1553 1554 1555 1555 1556 1556 1555 1554 1553
1519 1518 1514 1512 1510 1512 1510 1509 1512 1515 1521 1518 1517 1521 1507 1510 1507 1504 1505 1508 1508 1511 1512 1517 1523 1527 1532 1536 1538 1541 1542 1544 1546 1547 1548 1549 1550 1551 1552 1553 1553 1552 1551 1550
1515 1517 1517 1515 1513 1510 1510 1511 1512 1521 1523 1525 1521 1522 1511 1506 1494 1499 1500 1501 1503 1508 1505 1515 1520 1523 1528 1531 1534 1537 1538 1540 1542 1544 1545 1546 1547 1548 1548 1549 1549 1548 1548 1547
1517 1515 1515 1516 1512 1510 1511 1510 1527 1530 1541 1524 1554 1530 1498 1493 1491 1488 1489 1491 1494 1498 1504 1509 1513 1517 1522 1525 1529 1532 1534 1536 1538 1539 1540 1542 1543 1544 1545 1545 1545 1545 1544 1543
1524 1525 1515 1513 1516 1515 1513 1513 1522 1528 1534 1522 1536 1519 1497 1485 1485 1485 1485 1488 1491 1493 1499 1503 1507 1512 1516 1521 1525 1528 1530 1532 1534 1535 1536 1538 1539 1540 1541 1541 1541 1541 1540 1539
1517 1513 1512 1513 1514 1513 1511 1511 1516 1529 1546 1529 1516 1507 1491 1485 1483 1481 1480 1483 1484 1487 1491 1494 1501 1507 1511 1515 1519 1523 1525 1527 1529 1531 1533 1535 1536 1537 1537 1538 1538 1537 1536 1536
1508 1514 1512 1511 1512 1513 1514 1512 1516 1527 1528 1518 1512 1508 1493 1484 1476 1475 1477 1477 1479 1482 1484 1489 1494 1500 1505 1510 1514 1517 1520 1523 1525 1528 1529 1531 1533 1534 1534 1534 1534 1534 1533 1533
1508 1510 1513 1511 1510 1510 1515 1514 1516 1519 1523 1515 1517 1500 1479 1475 1473 1473 1472 1474 1476 1478 1481 1485 1489 1495 1500 1505 1509 1512 1515 1519 1522 1524 1526 1528 1530 1530 1531 1531 1531 1531 1530 1530
1505 1512 1520 1504 1506 1504 1505 1505 1506 1513 1512 1535 1530 1497 1471 1473 1471 1470 1470 1470 1471 1473 1476 1482 1487 1491 1495 1499 1504 1508 1512 1515 1518 1521 1523 1524 1526 1527 1527 1528 1528 1528 1529 1528
1503 1509 1524 1509 1507 1506 1503 1502 1505 1511 1515 1515 1515 1497 1470 1471 1467 1468 1468 1466 1467 1469 1472 1478 1483 1487 1492 1496 1500 1504 1508 1511 1514 1517 1519 1521 1522 1523 1524 1525 1526 1526 1526 1527
1499 1506 1502 1507 1492 1496 1497 1497 1500 1502 1515 1502 1507 1481 1465 1462 1465 1466 1464 1463 1464 1466 1471 1475 1480 1484 1489 1493 1498 1501 1505 1508 1510 1513 1516 1517 1519 1520 1521 1522 1523 1523 1524 1524
1497 1502 1504 1498 1497 1492 1489 1488 1498 1503 1489 1488 1469 1486 1460 1459 1461 1460 1461 1461 1463 1463 1466 1470 1476 1481 1485 1490 1494 1498 1501 1504 1507 1509 1512 1514 1515 1517 1518 1519 1520 1521 1522 1521
1500 1498 1500 1496 1491 1496 1493 1487 1490 1488 1487 1488 1486 1468 1455 1453 1455 1455 1456 1458 1458 1459 1461 1465 1471 1475 1480 1484 1488 1493 1497 1500 1503 1506 1508 1510 1511 1513 1515 1516 1517 1518 1519 1518
1500 1501 1503 1495 1497 1493 1490 1473 1474 1475 1477 1473 1474 1447 1450 1450 1451 1451 1451 1452 1452 1453 1455 1457 1461 1466 1471 1477 1482 1486 1490 1494 1497 1499 1502 1504 1506 1508 1511 1512 1513 1514 1515 1516
1496 1499 1501 1498 1493 1486 1461 1461 1462 1465 1458 1461 1455 1449 1450 1451 1450 1449 1450 1449 1448 1450 1452 1455 1459 1463 1468 1474 1478 1483 1487 1490 1493 1495 1498 1500 1503 1505 1507 1508 1510 1511 1512 1512
1485 1491 1494 1495 1502 1479 1449 1461 1462 1461 1450 1447 1448 1447 1449 1449 1447 1441 1441 1442 1444 1445 1446 1448 1452 1458 1464 1469 1474 1478 1482 1485 1488 1490 1494 1496 1499 1501 1503 1505 1507 1508 1509 1509
1488 1488 1489 1503 1495 1482 1455 1456 1455 1456 1457 1444 1446 1445 1445 1448 1451 1445 1441 1439 1439 1441 1441 1442 1446 1450 1456 1462 1468 1472 1476 1479 1482 1486 1490 1493 1495 1497 1500 1502 1503 1504 1505 1505
1489 1492 1488 1494 1495 1480 1453 1454 1457 1459 1453 1441 1442 1443 1444 1445 1442 1440 1440 1440 1440 1439 1439 1439 1440 1444 1450 1457 1461 1466 1470 1473 1478 1482 1485 1488 1491 1494 1496 1498 1499 1500 1500 1501
1474 1482 1487 1491 1493 1481 1447 1454 1457 1445 1440 1440 1440 1441 1441 1440 1439 1438 1438 1438 1437 1437 1436 1436 1437 1440 1445 1451 1456 1461 1465 1470 1473 1476 1479 1482 1486 1489 1491 1493 1494 1496 1497 1497
1465 1456 1462 1463 1456 1441 1441 1438 1440 1440 1441 1440 1440 1439 1438 1438 1438 1438 1436 1436 1436 1435 1435 1435 1435 1437 1440 1445 1449 1453 1458 1463 1468 1471 1474 1477 1480 1483 1486 1488 1490 1491 1492 1492
1452 1451 1452 1451 1438 1437 1436 1438 1437 1437 1437 1438 1438 1437 1437 1436 1434 1432 1433 1434 1433 1433 1433 1434 1435 1436 1438 1441 1446 1452 1456 1459 1463 1466 1471 1474 1476 1479 1481 1483 1485 1486 1487 1487
1444 1447 1445 1444 1438 1434 1431 1431 1431 1432 1434 1433 1432 1431 1430 1430 1430 1430 1429 1428 1430 1430 1429 1430 1431 1435 1438 1442 1445 1449 1452 1455 1460 1464 1467 1470 1473 1476 1478 1480 1480 1482 1481 1481
1438 1437 1438 1431 1429 1429 1428 1428 1428 1428 1428 1428 1427 1426 1424 1424 1424 1423 1424 1425 1424 1426 1427 1427 1429 1432 1436 1439 1443 1445 1448 1452 1456 1459 1463 1466 1469 1472 1474 1475 1475 1476 1476 1476